Dauntless Aviation
Airports Europe Switzerland
LSTA

Raron Airport

Raron, SWITZERLAND

Airport Info
Suggest Updated Information for this Airport

Location

Latitude / Longitude: 46°18'12"N / 7°49'23"E
  46°18.216'N / 7°49.398'E
  46.3036 / 7.8233
Satellite photo at:
Airport distance calculator
From:
Weather Reports

METAR

LSGS
21.7nm SW
LSGS 230520Z VRB01KT 9999 SCT090 17/12 Q1017
LSMS
21.7nm SW
LSMS 230450Z 00000KT 9999 SCT090 17/12 Q1017 RMK BLU+
LIMH
22.8nm S
LIMH 230455Z /////KT 0500 FZFG VV/// M01/M02 Q1026 RMK MON INVIS VAL INVIS VIS MIN 0500
LSMM
29.4nm N
LSMM 230450Z AUTO 00000KT 9999NDV -RA BKN062 OVC084 16/14 Q1018 RMK
LSZB
39.2nm NW
LSZB 230520Z VRB02KT 9999 SCT110 15/15 Q1018 NOSIG
LIMW
39.2nm S
LIMW 230520Z AUTO 00000KT 9999 NCD 16/13 Q1016

TAF

LSGS
21.7nm SW
TAF LSGS 230225Z 2303/2312 VRB03KT 9999 FEW090
LSZB
39.2nm NW
TAF LSZB 230225Z 2303/2312 VRB03KT 9999 BKN090 PROB30 TEMPO 2303/2308 SHRA SCT050TCU
LIMW
39.2nm S
TAF LIMW 230354Z 2304/2312 VRB05KT CAVOK BECMG 2310/2312 10015KT
Safelog

 

Dauntless Aviation

© 2007-2018 Dauntless Aviation, all rights reserved
Information provided via PilotNav comes from a variety of official and unofficial data sources. As errors are possible, do not use PilotNav for primary flight planning purposes. Verify any information that you receive via PilotNav with current and canonical charts and other official documents. The material in this database is subject to database copyrights held by Dauntless Aviation and may not be copied without the express permission of Dauntless Aviation - licenses for use of part of all of this data are available for purchase; enquire via the Dauntless Aviation helpdesk. A number of mechanisms and markers exist in the database to protect against and identify infringement / copyright. Automated queries against this website are stictly prohibited, and all activity is logged and analyzed.